• In Deutschland
  • Länderverzeichnis
  • Für 7 Tage
  • Wassertemperatur
  • Satellitenkarten
  • Wetterkarte
  • Widgets
  • user-avatar
    Anmelden

    Stündliche Wetter Prutz

    Heute, 29 Mai, Montag

    Zeit Temperatur Niederschläge Wind Luftdruck Luftfeuchtigkeit
    00:00 +8°C° 0 mm 1 m/S 635 mmHg 90%
    01:00 +8°C° 0 mm 1 m/S 635 mmHg 87%
    02:00 +8°C° 0 mm 1 m/S 635 mmHg 87%
    03:00 +8°C° 0 mm 1 m/S 635 mmHg 88%
    04:00 +8°C° 0 mm 1 m/S 635 mmHg 88%
    05:00 +10°C° 0 mm 1 m/S 635 mmHg 84%
    06:00 +13°C° 0 mm 1 m/S 636 mmHg 80%
    07:00 +15°C° 0 mm 1 m/S 637 mmHg 76%
    08:00 +18°C° 0 mm 1 m/S 638 mmHg 66%
    09:00 +20°C° 0 mm 1 m/S 638 mmHg 57%
    10:00 +22°C° 0 mm 1 m/S 638 mmHg 48%
    11:00 +22°C° 0 mm 1 m/S 638 mmHg 45%
    12:00 +23°C° 0 mm 1 m/S 638 mmHg 43%
    13:00 +24°C° 0 mm 1 m/S 638 mmHg 40%
    14:00 +23°C° 0,1 mm 1 m/S 638 mmHg 43%
    15:00 +23°C° 0,1 mm 1 m/S 637 mmHg 46%
    16:00 +23°C° 0,1 mm 2 m/S 637 mmHg 49%
    17:00 +21°C° 0,2 mm 1 m/S 637 mmHg 60%
    18:00 +19°C° 0,2 mm 1 m/S 636 mmHg 71%
    19:00 +18°C° 0,2 mm 1 m/S 635 mmHg 82%
    20:00 +15°C° 0,6 mm 1 m/S 635 mmHg 86%
    21:00 +11°C° 0,6 mm 0 m/S 634 mmHg 90%
    22:00 +9°C° 0,6 mm 0 m/S 634 mmHg 94%
    23:00 +10°C° 0,4 mm 1 m/S 634 mmHg 94%

    Morgen, 30 Mai, Dienstag

    Zeit Temperatur Niederschläge Wind Luftdruck Luftfeuchtigkeit
    00:00 +10°C° 0,4 mm 1 m/S 634 mmHg 94%
    01:00 +10°C° 0,4 mm 1 m/S 634 mmHg 94%
    02:00 +10°C° 0,2 mm 1 m/S 634 mmHg 94%
    03:00 +10°C° 0,2 mm 1 m/S 633 mmHg 95%
    04:00 +9°C° 0,2 mm 1 m/S 633 mmHg 95%
    05:00 +10°C° 0,1 mm 0 m/S 634 mmHg 91%
    06:00 +12°C° 0,1 mm 0 m/S 635 mmHg 88%
    07:00 +14°C° 0,1 mm 0 m/S 636 mmHg 84%
    08:00 +16°C° 0,4 mm 1 m/S 636 mmHg 81%
    09:00 +18°C° 0,4 mm 1 m/S 637 mmHg 78%
    10:00 +19°C° 0,4 mm 1 m/S 637 mmHg 75%
    11:00 +20°C° 1 mm 1 m/S 637 mmHg 74%
    12:00 +20°C° 1 mm 1 m/S 637 mmHg 74%
    13:00 +20°C° 1 mm 1 m/S 637 mmHg 74%
    14:00 +20°C° 1,3 mm 1 m/S 637 mmHg 75%
    15:00 +20°C° 1,3 mm 1 m/S 637 mmHg 76%
    16:00 +20°C° 1,3 mm 1 m/S 637 mmHg 77%
    17:00 +18°C° 1,2 mm 1 m/S 636 mmHg 82%
    18:00 +16°C° 1,2 mm 1 m/S 636 mmHg 86%
    19:00 +15°C° 1,2 mm 1 m/S 636 mmHg 91%
    20:00 +14°C° 1,3 mm 1 m/S 636 mmHg 93%
    21:00 +12°C° 1,3 mm 1 m/S 636 mmHg 95%
    22:00 +11°C° 1,3 mm 1 m/S 636 mmHg 97%
    23:00 +11°C° 0,5 mm 1 m/S 636 mmHg 97%

    übermorgen, 31 Mai, Mittwoch

    Zeit Temperatur Niederschläge Wind Luftdruck Luftfeuchtigkeit
    00:00 +10°C° 0,5 mm 1 m/S 636 mmHg 97%
    01:00 +10°C° 0,5 mm 1 m/S 636 mmHg 98%
    02:00 +10°C° 0,1 mm 1 m/S 636 mmHg 98%
    03:00 +8°C° 0,1 mm 0 m/S 635 mmHg 98%
    04:00 +8°C° 0,1 mm 0 m/S 635 mmHg 98%
    05:00 +9°C° 0 mm 0 m/S 636 mmHg 95%
    06:00 +11°C° 0 mm 0 m/S 637 mmHg 92%
    07:00 +13°C° 0 mm 0 m/S 637 mmHg 89%
    08:00 +15°C° 0,1 mm 0 m/S 638 mmHg 81%
    09:00 +16°C° 0,1 mm 0 m/S 638 mmHg 73%
    10:00 +20°C° 0,1 mm 1 m/S 639 mmHg 65%
    11:00 +20°C° 0,5 mm 1 m/S 639 mmHg 67%
    12:00 +20°C° 0,5 mm 1 m/S 639 mmHg 68%
    13:00 +19°C° 0,5 mm 2 m/S 639 mmHg 69%
    14:00 +19°C° 1,1 mm 1 m/S 638 mmHg 74%
    15:00 +19°C° 1,1 mm 1 m/S 638 mmHg 78%
    16:00 +18°C° 1,1 mm 1 m/S 638 mmHg 82%
    17:00 +16°C° 1,3 mm 1 m/S 637 mmHg 86%
    18:00 +16°C° 1,3 mm 1 m/S 637 mmHg 89%
    19:00 +15°C° 1,3 mm 1 m/S 637 mmHg 93%
    20:00 +12°C° 1 mm 0 m/S 637 mmHg 95%
    21:00 +11°C° 1 mm 0 m/S 637 mmHg 96%
    22:00 +10°C° 1 mm 0 m/S 636 mmHg 98%
    23:00 +10°C° 0,6 mm 0 m/S 636 mmHg 98%

    1 Juni, Donnerstag

    Zeit Temperatur Niederschläge Wind Luftdruck Luftfeuchtigkeit
    00:00 +10°C° 0,6 mm 0 m/S 636 mmHg 98%
    01:00 +11°C° 0,6 mm 1 m/S 636 mmHg 98%
    02:00 +9°C° 0,4 mm 0 m/S 636 mmHg 98%
    03:00 +9°C° 0,4 mm 0 m/S 636 mmHg 98%
    04:00 +9°C° 0,4 mm 0 m/S 635 mmHg 98%
    05:00 +10°C° 0,3 mm 0 m/S 636 mmHg 96%
    06:00 +11°C° 0,3 mm 0 m/S 636 mmHg 94%
    07:00 +12°C° 0,3 mm 0 m/S 637 mmHg 91%
    08:00 +13°C° 0,2 mm 0 m/S 637 mmHg 85%
    09:00 +15°C° 0,2 mm 1 m/S 638 mmHg 80%
    10:00 +16°C° 0,2 mm 1 m/S 638 mmHg 74%
    11:00 +18°C° 0,5 mm 1 m/S 638 mmHg 73%
    12:00 +18°C° 0,5 mm 1 m/S 638 mmHg 73%
    13:00 +18°C° 0,5 mm 1 m/S 638 mmHg 73%
    14:00 +18°C° 1 mm 1 m/S 638 mmHg 75%
    15:00 +18°C° 1 mm 1 m/S 638 mmHg 78%
    16:00 +18°C° 1 mm 1 m/S 637 mmHg 80%
    17:00 +16°C° 1,3 mm 1 m/S 637 mmHg 85%
    18:00 +15°C° 1,3 mm 1 m/S 637 mmHg 89%
    19:00 +14°C° 1,3 mm 1 m/S 637 mmHg 94%
    20:00 +12°C° 1,3 mm 0 m/S 636 mmHg 95%
    21:00 +11°C° 1,3 mm 0 m/S 636 mmHg 96%
    22:00 +9°C° 1,3 mm 0 m/S 636 mmHg 98%
    23:00 +9°C° 0,7 mm 0 m/S 636 mmHg 98%

    2 Juni, Freitag

    Zeit Temperatur Niederschläge Wind Luftdruck Luftfeuchtigkeit
    00:00 +9°C° 0,7 mm 0 m/S 636 mmHg 98%
    01:00 +9°C° 0,7 mm 0 m/S 636 mmHg 98%
    02:00 +9°C° 0,2 mm 0 m/S 635 mmHg 98%
    03:00 +8°C° 0,2 mm 0 m/S 635 mmHg 98%
    04:00 +8°C° 0,2 mm 0 m/S 635 mmHg 98%
    05:00 +10°C° 0,1 mm 0 m/S 636 mmHg 96%
    06:00 +11°C° 0,1 mm 0 m/S 636 mmHg 94%
    07:00 +12°C° 0,1 mm 0 m/S 637 mmHg 91%
    08:00 +13°C° 0,2 mm 0 m/S 637 mmHg 85%
    09:00 +15°C° 0,2 mm 0 m/S 638 mmHg 79%
    10:00 +16°C° 0,2 mm 0 m/S 638 mmHg 73%
    11:00 +19°C° 0,9 mm 1 m/S 638 mmHg 74%
    12:00 +19°C° 0,9 mm 1 m/S 638 mmHg 76%
    13:00 +19°C° 0,9 mm 1 m/S 637 mmHg 77%
    14:00 +19°C° 1,4 mm 1 m/S 637 mmHg 78%
    15:00 +18°C° 1,4 mm 1 m/S 637 mmHg 80%
    16:00 +18°C° 1,4 mm 1 m/S 637 mmHg 82%
    17:00 +16°C° 2 mm 1 m/S 636 mmHg 86%
    18:00 +15°C° 2 mm 1 m/S 636 mmHg 90%
    19:00 +13°C° 2 mm 0 m/S 636 mmHg 94%
    20:00 +12°C° 0,7 mm 0 m/S 636 mmHg 95%
    21:00 +12°C° 0,7 mm 1 m/S 635 mmHg 95%
    22:00 +11°C° 0,7 mm 1 m/S 635 mmHg 96%
    23:00 +10°C° 0 mm 1 m/S 635 mmHg 96%

    3 Juni, Samstag

    Zeit Temperatur Niederschläge Wind Luftdruck Luftfeuchtigkeit
    00:00 +10°C° 0 mm 1 m/S 635 mmHg 96%
    01:00 +9°C° 0 mm 1 m/S 634 mmHg 95%
    02:00 +9°C° 0 mm 1 m/S 634 mmHg 95%
    03:00 +8°C° 0 mm 1 m/S 634 mmHg 95%
    04:00 +8°C° 0 mm 1 m/S 634 mmHg 95%
    05:00 +10°C° 0 mm 1 m/S 634 mmHg 92%
    06:00 +12°C° 0 mm 1 m/S 635 mmHg 88%
    07:00 +13°C° 0 mm 0 m/S 636 mmHg 85%
    08:00 +16°C° 0 mm 0 m/S 637 mmHg 73%
    09:00 +18°C° 0 mm 0 m/S 637 mmHg 61%
    10:00 +20°C° 0 mm 0 m/S 638 mmHg 49%
    11:00 +23°C° 0,1 mm 1 m/S 638 mmHg 47%
    12:00 +24°C° 0,1 mm 1 m/S 638 mmHg 45%
    13:00 +24°C° 0,1 mm 1 m/S 638 mmHg 43%
    14:00 +23°C° 0,2 mm 1 m/S 637 mmHg 49%
    15:00 +23°C° 0,2 mm 1 m/S 637 mmHg 54%
    16:00 +21°C° 0,2 mm 2 m/S 636 mmHg 59%
    17:00 +20°C° 0,4 mm 1 m/S 636 mmHg 68%
    18:00 +19°C° 0,4 mm 1 m/S 636 mmHg 78%
    19:00 +18°C° 0,4 mm 1 m/S 635 mmHg 88%
    20:00 +15°C° 0,3 mm 1 m/S 635 mmHg 90%
    21:00 +13°C° 0,3 mm 1 m/S 634 mmHg 93%
    22:00 +12°C° 0,3 mm 1 m/S 634 mmHg 95%
    23:00 +12°C° 0,3 mm 1 m/S 634 mmHg 95%
    Mehr zeigen